Regional Weather Roundup
Issued by NWS

Home | Current Version | Previous Version | Graphics & Text | Print | Product List | Glossary On
Versions: 1 2 3 4 5 6 7 8 9 10 11 12 13 14 15 16 17 18 19 20 21 22 23 24 25 26 27 28 29 30 31 32 33 34 35 36 37 38 39 40 41 42 43 44 45 46 47 48 49 50
000
ASUS43 KDMX 221601
RWRIA

WEATHER ROUNDUP FOR IOWA
NATIONAL WEATHER SERVICE DES MOINES IA
1100 AM CDT THU JUN 22 2017

NOTE: "FAIR" INDICATES FEW OR NO CLOUDS BELOW 12,000 FEET WITH NO
SIGNIFICANT WEATHER AND/OR OBSTRUCTIONS TO VISIBILITY.

* - THESE STATIONS ARE NOT NWS STATIONS...THUS NOT UNDER NWS
QUALITY CONTROL.  THEY ALSO DO NOT REPORT WEATHER SUCH
AS PRECIPITATION OR FOG.

IAZ001>003-012>014-020>022-031>034-043>046-221700-
   NORTHWEST IOWA

CITY           SKY/WX    TMP DP  RH WIND       PRES   REMARKS
CARROLL *      SUNNY     82  64  54 SW15      29.68S HX  84
CHEROKEE *     SUNNY     81  67  62 NE9       29.68R HX  83
DENISON *      SUNNY     82  63  51 S12       29.69S HX  83
LE MARS *      CLOUDY    75  63  64 NE20G37   29.69R
ORANGE CITY *  CLOUDY    72  63  73 E13G22    29.70F
SHELDON *      CLOUDY    72  63  73 E17G25    29.69F
SIOUX CITY     SUNNY     86  65  49 NE9       29.64S HX  88
SPENCER        CLOUDY    74  64  71 NE14      29.73R
STORM LAKE *   SUNNY     81  64  57 VRB7      29.69S HX  82
$$

IAZ055>058-069>071-079>083-090>094-221700-
   SOUTHWEST IOWA

CITY           SKY/WX    TMP DP  RH WIND       PRES   REMARKS
ATLANTIC *     PTSUNNY   81  64  57 S17G24    29.68S HX  82
AUDUBON *      MOSUNNY   81  66  61 S10G16    29.71R HX  83
CLARINDA *     CLOUDY    79  66  65 S12       29.73R HX  81
COUNCIL BLFS * MOSUNNY   81  66  61 S16       29.67S HX  83
CRESTON *      SUNNY     82  64  54 S17G26    29.73S HX  84
HARLAN  *      SUNNY     81  64  57 S13       29.72R HX  82
LAMONI         SUNNY     82  69  64 SW18      29.74R HX  85
RED OAK *      PTSUNNY   79  66  65 S12G21    29.69R HX  81
SHENANDOAH *   CLOUDY    77  66  69 S12       29.69S
$$

IAZ047>049-059>061-072>074-084-221700-
   CENTRAL IOWA

CITY           SKY/WX    TMP DP  RH WIND       PRES   REMARKS
AMES           PTSUNNY   79  68  69 S13       29.72R HX  81
ANKENY *       CLOUDY    79  64  61 S8G15     29.73R HX  81
BOONE *        MOSUNNY   81  66  61 S12       29.70F HX  83
CHARITON *     SUNNY     84  68  58 SW12G24   29.73R HX  87
DES MOINES     PTSUNNY   82  64  54 S7        29.70S HX  83
GRINNELL*      CLOUDY    77  65  66 SE3       29.77F
KNOXVILLE *    CLOUDY    81  66  61 SW9G18    29.73R HX  83
MARSHALLTOWN   LGT RAIN  73  67  81 SE6       29.74S
NEWTON *       CLOUDY    79  68  69 S7        29.74S HX  81
PELLA *        CLOUDY    82  67  60 S8        29.75S HX  84
PERRY *          N/A     81  63  53 S15       29.70R HX  82
$$

IAZ004>006-015-016-023>025-035-036-221700-
   NORTH CENTRAL IOWA

CITY           SKY/WX    TMP DP  RH WIND       PRES   REMARKS
ALGONA *       CLOUDY    77  66  69 S12       29.70S
CLARION *        N/A     77  72  83 SE14      29.71F
ESTHERVILLE    CLOUDY    71  65  81 NE14      29.71R
FORT DODGE *   MOSUNNY   82  63  51 S5        29.71S HX  83
MASON CITY     CLOUDY    71  67  87 CALM      29.73F
FOREST CITY *    N/A     70  63  78 SE9       29.69F
WEBSTER CITY * CLOUDY    81  66  61 S13       29.69R HX  83
IOWA FALLS *     N/A     76  67  73 SE10G17   29.74F
$$

IAZ007>011-017>019-026>030-037>042-050>054-066-221700-
   NORTHEAST IOWA

CITY           SKY/WX    TMP DP  RH WIND       PRES   REMARKS
CEDAR RAPIDS   CLOUDY    77  70  79 E3        29.79R
CHARLES CITY * CLOUDY    72  70  94 SW7       29.77R
CLINTON *      MOSUNNY   80  69  69 SW9       29.84  HX  83
DECORAH *      CLOUDY    70  64  83 SW6       29.74R
DUBUQUE        CLOUDY    76  65  68 S9        29.82F
MONTICELLO *   CLOUDY    77  66  69 E6        29.80F
OELWEIN *      CLOUDY    70  66  88 SE14G22   29.76R
WATERLOO       CLOUDY    71  64  78 SE9       29.72S
$$

IAZ064-065-067-068-078-221700-
   EAST CENTRAL IOWA

CITY           SKY/WX    TMP DP  RH WIND       PRES   REMARKS
DAVENPORT      CLOUDY    80  68  66 SW10G23   29.80S HX  83
IOWA CITY      CLOUDY    82  68  62 NW5       29.81R HX  85
MT. PLEASANT * SUNNY     83  67  58 S15       29.78S HX  86
MUSCATINE *    MOSUNNY   84  68  58 S12       29.78S HX  87
QUAD CITIES    SUNNY     84  68  58 SW10      29.78F HX  87
$$

IAZ062-063-075>077-085>089-095>099-221700-
   SOUTHEAST IOWA

CITY           SKY/WX    TMP DP  RH WIND       PRES   REMARKS
BURLINGTON     PTSUNNY   83  71  67 S12       29.80R HX  87
FAIRFIELD *    CLOUDY    84  66  54 S17G23    29.76S HX  86
FORT MADISON * SUNNY     82  72  69 S7G17     29.80R HX  87
KEOKUK *       MOSUNNY   82  72  69 SW14      29.78R HX  87
OSKALOOSA *      N/A     82  67  61 SW8G16    29.77R HX  84
OTTUMWA        SUNNY     84  69  60 S16G24    29.74S HX  88
WASHINGTON *   MOSUNNY   82  68  61 SW9G17    29.78S HX  85
$$

ABBREVIATIONS USED IN REMARKS
   TC - TEMPERATURES IN CELSIUS
  WCI - WIND CHILL INDEX
   HX - HEAT INDEX
  VSB - VISIBILITY
$$




USA.gov is the U.S. government's official web portal to all federal, state and local government web resources and services.